CW0451 Weather Reports


Display with metric or nautical units.
time (UTC)temp
F
wind
direction
speed
MPH
gust
MPH
rain 1hr
in
rain 24hr
in
rain mn
in
humidity
%
barometer
mb
20211204105102 28 191 2.0 3.0 0.00 0.00 0.00 71 1018.5
20211204104103 28 191 2.0 5.0 0.00 0.00 0.00 71 1018.6
20211204103102 28 198 3.0 4.0 0.00 0.00 0.00 70 1018.4
20211204102102 28 349 1.0 2.0 0.00 0.00 0.00 73 1018.3
20211204101102 29 350 0.0 1.0 0.00 0.00 0.00 77 1018.2
20211204100102 29 349 0.0 2.0 0.00 0.00 0.00 68 1018.3
20211204095102 29 349 0.0 2.0 0.00 0.00 0.00 68 1018.4
20211204094102 30 349 0.0 3.0 0.00 0.00 0.00 67 1018.2
20211204093102 30 344 3.0 4.0 0.00 0.00 0.00 67 1017.9
20211204092102 30 237 2.0 6.0 0.00 0.00 0.00 64 1018.2
20211204091103 30 259 1.0 4.0 0.00 0.00 0.00 64 1018.2
20211204090102 30 259 1.0 4.0 0.00 0.00 0.00 63 1018.4
20211204085103 30 264 2.0 3.0 0.00 0.00 0.00 63 1018.3
20211204084102 30 264 0.0 5.0 0.00 0.00 0.00 62 1017.9
20211204083102 30 254 1.0 5.0 0.00 0.00 0.00 61 1017.9
20211204082102 30 289 1.0 4.0 0.00 0.00 0.00 61 1017.9
20211204081103 30 274 1.0 4.0 0.00 0.00 0.00 60 1017.9
20211204080102 30 281 1.0 4.0 0.00 0.00 0.00 60 1017.8
20211204075102 30 276 2.0 4.0 0.00 0.00 0.00 60 1017.8
20211204074102 30 282 2.0 4.0 0.00 0.00 0.00 59 1018.0
20211204073102 30 285 2.0 5.0 0.00 0.00 0.00 59 1017.8
20211204072102 31 296 2.0 5.0 0.00 0.00 0.00 59 1017.6
20211204071102 31 293 2.0 6.0 0.00 0.00 0.00 58 1017.6
20211204070102 31 286 3.0 6.0 0.00 0.00 0.00 58 1017.4
20211204065102 31 285 3.0 6.0 0.00 0.00 0.00 58 1017.5
20211204064102 31 308 4.0 6.0 0.00 0.00 0.00 57 1017.3
20211204063102 31 298 3.0 8.0 0.00 0.00 0.00 58 1017.2
20211204062102 31 295 4.0 7.0 0.00 0.00 0.00 57 1017.4
20211204061103 31 284 4.0 9.0 0.00 0.00 0.00 57 1017.3
20211204060102 31 294 4.0 11.0 0.00 0.00 0.00 58 1017.0
20211204055102 31 299 5.0 11.0 0.00 0.00 0.00 60 1017.2
20211204054102 30 298 3.0 7.0 0.00 0.00 0.00 62 1017.0
20211204053102 28 292 2.0 7.0 0.00 0.00 0.00 66 1017.0
20211204052102 27 253 3.0 4.0 0.00 0.00 0.00 71 1016.8
20211204051102 26 249 1.0 4.0 0.00 0.00 0.00 76 1016.6
20211204050102 25 234 2.0 3.0 0.00 0.00 0.00 81 1016.6
20211204045102 25 221 2.0 3.0 0.00 0.00 0.00 84 1016.6
20211204044102 25 222 0.0 1.0 0.00 0.00 0.00 83 1016.5
20211204043102 25 221 1.0 2.0 0.00 0.00 0.00 83 1016.3
20211204042103 26 221 1.0 2.0 0.00 0.00 0.00 81 1016.1
20211204041102 26 221 1.0 5.0 0.00 0.00 0.00 74 1016.0
20211204040103 25 215 3.0 4.0 0.00 0.00 0.00 74 1016.0
20211204035102 25 233 0.0 0.0 0.00 0.00 0.00 83 1016.1
20211204034103 25 233 0.0 4.0 0.00 0.00 0.00 83 1016.1
20211204033102 25 232 1.0 4.0 0.00 0.00 0.00 80 1016.5
20211204032102 26 232 3.0 5.0 0.00 0.00 0.00 80 1016.4
20211204031103 26 228 1.0 4.0 0.00 0.00 0.00 79 1016.2
20211204030102 27 224 2.0 3.0 0.00 0.00 0.00 78 1015.9
20211204025103 27 206 1.0 3.0 0.00 0.00 0.00 70 1015.6
20211204024102 28 207 0.0 0.0 0.00 0.00 0.00 75 1015.8
20211204023102 28 206 1.0 4.0 0.00 0.00 0.00 69 1015.8
20211204022102 28 248 2.0 4.0 0.00 0.00 0.00 66 1015.9
20211204021102 29 278 1.0 4.0 0.00 0.00 0.00 73 1015.7
20211204020103 29 247 2.0 8.0 0.00 0.00 0.00 65 1015.6
20211204015102 30 249 2.0 4.0 0.00 0.00 0.00 61 1015.6
20211204014103 31 264 0.0 2.0 0.00 0.00 0.00 64 1015.5
20211204013102 32 265 0.0 3.0 0.00 0.00 0.00 57 1015.5
20211204012102 33 268 1.0 4.0 0.00 0.00 0.00 54 1015.3
20211204011102 33 282 2.0 5.0 0.00 0.00 0.00 54 1014.9
20211204010102 34 300 4.0 9.0 0.00 0.00 0.00 54 1014.7
20211204005102 34 310 5.0 11.0 0.00 0.00 0.00 54 1014.6
20211204004102 34 298 5.0 9.0 0.00 0.00 0.00 53 1014.8
20211204003102 34 292 3.0 9.0 0.00 0.00 0.00 53 1014.9
20211204002102 35 292 5.0 9.0 0.00 0.00 0.00 53 1015.0
20211204001102 35 296 5.0 10.0 0.00 0.00 0.00 53 1014.9
20211204000102 35 291 4.0 16.0 0.00 0.00 0.00 53 1014.5
20211203235103 35 290 4.0 10.0 0.00 0.00 0.00 54 1014.4
20211203234102 35 316 6.0 11.0 0.00 0.00 0.00 54 1014.2
20211203233102 36 290 3.0 10.0 0.00 0.00 0.00 54 1013.7
20211203232102 36 308 4.0 10.0 0.00 0.00 0.00 53 1013.5
20211203231103 36 312 7.0 13.0 0.00 0.00 0.00 53 1013.3
20211203230102 36 288 7.0 13.0 0.00 0.00 0.00 53 1013.2
20211203225102 37 297 4.0 9.0 0.00 0.00 0.00 53 1013.2
20211203224103 37 288 4.0 11.0 0.00 0.00 0.00 53 1013.0
20211203223102 37 286 5.0 11.0 0.00 0.00 0.00 52 1012.8
20211203222102 37 303 5.0 9.0 0.00 0.00 0.00 52 1012.7
20211203221102 38 308 4.0 9.0 0.00 0.00 0.00 52 1012.5
20211203220103 38 314 5.0 12.0 0.00 0.00 0.00 52 1012.3
20211203215102 38 294 6.0 14.0 0.00 0.00 0.00 51 1012.0
20211203214103 38 288 4.0 11.0 0.00 0.00 0.00 52 1011.7
20211203213102 39 293 6.0 13.0 0.00 0.00 0.00 51 1011.4
20211203212102 39 300 7.0 14.0 0.00 0.00 0.00 50 1011.2
20211203211103 39 301 5.0 11.0 0.00 0.00 0.00 51 1011.1
20211203210102 40 310 5.0 15.0 0.00 0.00 0.00 49 1010.9
20211203205104 40 334 6.0 17.0 0.00 0.00 0.00 48 1010.6
20211203204102 41 311 6.0 12.0 0.00 0.00 0.00 48 1010.4
20211203203102 41 306 7.0 15.0 0.00 0.00 0.00 48 1010.4
20211203202102 41 327 10.0 21.0 0.00 0.00 0.00 47 1010.3
20211203201102 41 313 9.0 22.0 0.00 0.00 0.00 47 1010.3
20211203200102 41 309 13.0 25.0 0.00 0.00 0.00 46 1010.1
20211203195102 41 309 14.0 25.0 0.00 0.00 0.00 46 1010.0
20211203194103 41 331 13.0 30.0 0.00 0.00 0.00 46 1009.9
20211203193102 42 309 13.0 25.0 0.00 0.00 0.00 46 1009.7
20211203192102 42 305 11.0 20.0 0.00 0.00 0.00 47 1009.4
20211203191103 42 308 7.0 21.0 0.00 0.00 0.00 47 1009.4
20211203190102 42 321 10.0 18.0 0.00 0.00 0.00 47 1009.3
20211203185102 41 321 13.0 22.0 0.00 0.00 0.00 48 1009.1
20211203184102 42 322 14.0 24.0 0.00 0.00 0.00 47 1009.0
20211203183102 42 312 11.0 20.0 0.00 0.00 0.00 48 1008.9
20211203182103 42 309 13.0 19.0 0.00 0.00 0.00 48 1009.0
20211203181102 41 309 11.0 23.0 0.00 0.00 0.00 49 1009.0
20211203180102 41 324 15.0 22.0 0.00 0.00 0.00 47 1008.8
20211203175102 41 324 13.0 23.0 0.00 0.00 0.00 48 1008.7
20211203174102 42 323 11.0 23.0 0.00 0.00 0.00 49 1008.6
20211203173102 42 289 7.0 21.0 0.00 0.00 0.00 50 1008.6
20211203172102 41 321 10.0 20.0 0.00 0.00 0.00 52 1008.6
20211203171103 41 302 14.0 24.0 0.00 0.00 0.00 51 1008.6
20211203170102 41 327 17.0 23.0 0.00 0.00 0.00 51 1008.4
20211203165102 41 315 10.0 23.0 0.00 0.00 0.00 53 1008.6
20211203164102 41 313 13.0 23.0 0.00 0.00 0.00 53 1008.5
20211203163102 41 309 13.0 21.0 0.00 0.00 0.00 53 1008.5
20211203162102 42 315 11.0 20.0 0.00 0.00 0.00 53 1008.5
20211203161102 41 343 15.0 23.0 0.00 0.00 0.00 55 1008.6
20211203160102 41 302 11.0 25.0 0.00 0.00 0.00 54 1008.8
20211203155102 41 320 7.0 24.0 0.00 0.00 0.00 56 1008.7
20211203154103 40 316 15.0 29.0 0.00 0.00 0.00 54 1008.8
20211203153102 40 304 15.0 24.0 0.00 0.00 0.00 54 1008.6
20211203152103 40 317 16.0 28.0 0.00 0.00 0.00 56 1008.6
20211203151102 40 326 17.0 26.0 0.00 0.00 0.00 56 1008.5
20211203150102 40 318 14.0 29.0 0.00 0.00 0.00 57 1008.4
20211203145102 40 313 15.0 23.0 0.00 0.00 0.00 58 1007.9
20211203144103 40 325 16.0 25.0 0.00 0.00 0.00 58 1008.0
20211203143102 40 329 15.0 24.0 0.00 0.00 0.00 60 1007.7
20211203142102 40 312 12.0 30.0 0.00 0.00 0.00 60 1007.7
20211203141102 41 324 18.0 27.0 0.00 0.00 0.00 59 1007.5
20211203140103 41 326 14.0 25.0 0.00 0.00 0.00 61 1007.4
20211203135102 41 318 16.0 26.0 0.00 0.00 0.00 61 1007.3
20211203134102 41 335 12.0 22.0 0.00 0.00 0.00 62 1007.3
20211203133103 40 326 17.0 24.0 0.00 0.00 0.00 63 1007.0
20211203132102 40 316 12.0 19.0 0.00 0.00 0.00 64 1006.9
20211203131103 40 326 8.0 20.0 0.00 0.00 0.00 65 1006.5
20211203130102 40 307 12.0 18.0 0.00 0.00 0.00 65 1006.1
20211203125102 40 302 10.0 18.0 0.00 0.00 0.00 65 1005.9
20211203124102 40 302 9.0 17.0 0.00 0.00 0.00 64 1005.8
20211203123103 40 310 12.0 21.0 0.00 0.00 0.00 65 1005.3
20211203122102 40 309 8.0 22.0 0.00 0.00 0.00 65 1005.5
20211203121102 40 279 7.0 23.0 0.00 0.00 0.00 65 1005.3
20211203120102 40 296 7.0 24.0 0.00 0.00 0.00 65 1005.0
20211203115103 40 299 9.0 22.0 0.00 0.00 0.00 65 1004.8
20211203114102 40 308 14.0 24.0 0.00 0.00 0.00 65 1004.7
20211203113102 40 321 8.0 18.0 0.00 0.00 0.00 65 1004.6
20211203112103 41 289 8.0 20.0 0.00 0.00 0.00 65 1004.4
20211203111102 41 302 6.0 13.0 0.00 0.00 0.00 65 1004.3
20211203110103 41 319 11.0 26.0 0.00 0.00 0.00 64 1004.2